Lexington Weather

Lexington, Massachusetts, USA

57°F
12/4/2020 1:25pm 
  • Lexington Conditions: Partly cloudy
  • Temperature: 57.4°F / 14.1°CWarmer 3.3°F than last hour.
  • Dew Point: 35.6°FIncreased 0.7°Fsince last hour.
  • Relative Humidity: 44%Decreased 4.0% since last hour.
  • Wind: Wind from SW SW 2 mph, 10-min avg: 4 mph, gust: 13 mph
  • Barometer: 29.89 inFalling 0.02  inHg/hr Falling Slowly
  • Visibility: 10 miles
  • Rain Today: 0.00 in
  •   
Southeast Middlesex County - Winter Storm Watch
 - SEE ALL NEARBY ALERTS -

Regional Weather Roundup
for Boston / Norton, MA

        
000
ASUS41 KBOX 280504
RWRBOX

REGIONAL WEATHER ROUNDUP
NATIONAL WEATHER SERVICE BOSTON/NORTON MA
1200 AM EST SAT NOV 28 2020

NOTE:  "FAIR" INDICATES FEW OR NO CLOUDS BELOW 12,000 FEET WITH NO 
SIGNIFICANT WEATHER AND/OR OBSTRUCTIONS TO VISIBILITY.

MAZALL-280600-
EASTERN MASSACHUSETTS
  
CITY           SKY/WX    TMP DP  RH WIND       PRES   REMARKS
BOSTON         CLOUDY    50  41  71 N5        29.95S                  
BEVERLY        CLOUDY    47  41  80 NW3       29.93F                  
LAWRENCE       CLOUDY    46  40  79 NW3       29.96F                  
BEDFORD        CLOUDY    44  43  96 CALM      29.93F VSB 1/2          
BLUE HILL        N/A     47  40  76 NW6       29.92F                  
NORWOOD        CLOUDY    47  44  90 CALM      29.94F                  
MARSHFIELD     CLOUDY    50  45  81 N3        29.93F                  
PLYMOUTH       CLOUDY    47  43  86 W5        29.94S                  
TAUNTON        CLOUDY    50  45  83 CALM      29.94S                  
NEW BEDFORD    MOCLDY    44  44 100 CALM      29.94S FOG              
$$

MAZALL-280600-
CAPE COD AND THE ISLANDS
  
CITY           SKY/WX    TMP DP  RH WIND       PRES   REMARKS
FALMOUTH       CLOUDY    48  45  87 CALM      29.94S                  
HYANNIS        MOCLDY    49  48  97 N5        29.92S                  
CHATHAM        CLOUDY    51  46  83 CALM      29.93F                  
NANTUCKET      CLOUDY    52  49  89 NW8       29.93S                  
MARTHAS VNYRD  CLOUDY    47  46  97 NW5       29.94R                  
$$
 
MAZALL-280600-
CENTRAL AND WESTERN MASSACHUSETTS
  
CITY           SKY/WX    TMP DP  RH WIND       PRES   REMARKS
WORCESTER      CLOUDY    45  38  76 NW7       29.94S                  
FITCHBURG      CLOUDY    42  41  96 CALM      29.95F                  
ORANGE         FOG       42  42 100 CALM      29.96S VSB 1            
SPRINGFIELD    CLOUDY    44  44 100 CALM      29.95S                  
WESTFIELD      CLOUDY    45  43  93 CALM      29.96S                  
NORTH ADAMS    CLOUDY    43  39  86 CALM      29.96S                  
PITTSFIELD     CLOUDY    42  38  85 CALM      29.94F                  
$$
 
RIZALL-280600-
RHODE ISLAND
  
CITY           SKY/WX    TMP DP  RH WIND       PRES   REMARKS
PROVIDENCE     MOCLDY    49  44  83 CALM      29.95S                  
NEWPORT        MOCLDY    44  44 100 CALM      29.94S FOG              
BLOCK ISLAND   MOCLDY    49  46  90 NE5       29.95F                  
SMITHFIELD     CLOUDY    47  45  93 N3        29.94F                  
WESTERLY       CLOUDY    45  43  93 CALM      29.95S                  
$$
 
CTZALL-280600-
CONNECTICUT
  
CITY           SKY/WX    TMP DP  RH WIND       PRES   REMARKS
BRADLEY INTL   CLOUDY    48  39  71 NW5       29.96F                  
HARTFORD       CLOUDY    51  39  63 N5        29.97S                  
BRIDGEPORT     CLOUDY    50  42  74 W3        29.97S                  
DANBURY        PTCLDY    40  39  97 CALM      29.98S                  
GROTON         CLOUDY    47  44  90 N3        29.94F                  
NEW HAVEN      CLOUDY    51  45  79 CALM      29.96S                  
CHESTER        MOCLDY    48  43  81 NW3       29.95F                  
MERIDEN        CLOUDY    47  42  83 CALM      29.97S                  
WILLIMANTIC    CLOUDY    45  44  97 CALM      29.96S                  
OXFORD         CLOUDY    47  43  86 N5        29.97S                  
$$

MEZ002-015-021-024-NHZ003-005-008-011-012-014-VTZ005-008-280600-
NORTHERN NEW ENGLAND
  
CITY           SKY/WX    TMP DP  RH WIND       PRES   REMARKS
PORTLAND ME    MOCLDY    43  43 100 W5        29.92F                  
BANGOR ME      LGT RAIN  41  38  89 N5        29.93F                  
CONCORD NH     CLOUDY    41  38  89 CALM      29.94F                  
MANCHESTER NH  CLOUDY    44  39  82 CALM      29.93F                  
NASHUA NH      CLOUDY    42  42 100 W3        29.95F                  
PORTSMOUTH NH  CLOUDY    44  38  79 SW5       29.91F                  
JAFFREY NH     CLOUDY    41  38  89 CALM      29.94S                  
KEENE NH       CLOUDY    40  40 100 CALM      29.96R FOG              
BURLINGTON VT  CLOUDY    42  39  89 N5        29.93F                  
MT. WASHINGTON SNOWSHWR  21  21 100 NW30        N/A  VSB 1/16WCI   3  
$$

NYZ052-076-280600-
EASTERN NEW YORK
  
CITY           SKY/WX    TMP DP  RH WIND       PRES   REMARKS
ALBANY         CLOUDY    41  40  96 CALM      29.98F                  
NEW YORK CITY  MOCLDY    53  38  56 NW10      29.98S                  
$$
 
ANZALL-280600-
MARINE OBSERVATIONS
  
STATION/POSITION TIME  TEMP    WIND        PRES    VSBY  WAVE
                       AIR SEA DIR/SP/G                  HT/PER
                 (UTC) (F)     (DEG/KT/KT) (MB)    (MI)  (FT/S)
BOSTON BUOY      0450   50     290/  4/  4 1014.2R         1/10
BUZZARDS BAY     0400          360/  5/  6 1014.6F
NANTUCKET SOUND  0450      51   20/  4/  6   N/A           1/ 8
MASS BAY-STELLWA NOT AVBL
ISLE OF SHOALS   0400   49     270/ 10/ 10 1013.3F
S OF BLOCK IS    0426      57                N/A           4/ 8
$$

......................KEY.........................
  SKY/WX - SKY CONDITION/PRESENT WEATHER
  TMP    - TEMPERATURE IN FAHRENHEIT
  DWPT   - DEWPOINT IN FAHRENHEIT
  RH     - RELATIVE HUMIDITY IN PERCENT
  WIND   - DIRECTION AND SPEED IN MPH
  PRES   - MEAN SEA LEVEL PRESSURE IN INCHES OF HG
  WCI    - WIND CHILL INDEX
  VSB    - VISIBILITY IN MILES
  HX     - HEAT INDEX
  TC     - TEMPERATURE IN CELSIUS
  VRB    - VARIABLE WIND DIRECTION
  N/A    - NOT AVAILABLE
  
      

Other recent Regional Weather Roundups

Fri Dec 4, 1:04pm

Fri Dec 4, 12:04pm

Fri Dec 4, 11:04am

Fri Dec 4, 10:05am

Fri Dec 4, 9:04am

Fri Dec 4, 8:04am

Fri Dec 4, 7:04am

Fri Dec 4, 6:04am

Fri Dec 4, 5:04am

Fri Dec 4, 4:04am

Fri Dec 4, 3:04am

Fri Dec 4, 2:04am

Fri Dec 4, 1:04am

Fri Dec 4, 12:04am

Thu Dec 3, 11:04pm

Thu Dec 3, 10:04pm

Thu Dec 3, 9:04pm

Thu Dec 3, 8:04pm

Thu Dec 3, 7:04pm

Thu Dec 3, 6:04pm

Thu Dec 3, 5:04pm

Thu Dec 3, 4:05pm

Thu Dec 3, 3:04pm

Thu Dec 3, 2:04pm

Thu Dec 3, 1:04pm

Thu Dec 3, 12:04pm

Thu Dec 3, 11:04am

Thu Dec 3, 10:04am

Thu Dec 3, 9:04am

Thu Dec 3, 8:04am

Thu Dec 3, 7:04am

Thu Dec 3, 6:04am

Thu Dec 3, 5:04am

Thu Dec 3, 4:04am

Thu Dec 3, 3:04am

Thu Dec 3, 2:04am

Thu Dec 3, 1:04am

Thu Dec 3, 12:04am

Wed Dec 2, 11:04pm

Wed Dec 2, 10:04pm

Wed Dec 2, 9:04pm

Wed Dec 2, 8:04pm

Wed Dec 2, 7:04pm

Wed Dec 2, 6:05pm

Wed Dec 2, 5:04pm

Wed Dec 2, 4:05pm

Wed Dec 2, 3:05pm

Wed Dec 2, 2:04pm

Wed Dec 2, 1:04pm

Wed Dec 2, 12:04pm

Wed Dec 2, 11:04am

Wed Dec 2, 10:04am

Wed Dec 2, 9:05am

Wed Dec 2, 8:04am

Wed Dec 2, 7:04am

Wed Dec 2, 6:04am

Wed Dec 2, 5:04am

Wed Dec 2, 4:04am

Wed Dec 2, 3:04am

Wed Dec 2, 2:04am

Wed Dec 2, 1:04am

Wed Dec 2, 12:04am

Tue Dec 1, 11:04pm

Tue Dec 1, 10:04pm

Tue Dec 1, 9:04pm

Tue Dec 1, 8:04pm

Tue Dec 1, 7:04pm

Tue Dec 1, 6:05pm

Tue Dec 1, 5:04pm

Tue Dec 1, 4:05pm

Tue Dec 1, 3:04pm

Tue Dec 1, 2:04pm

Tue Dec 1, 12:04pm

Tue Dec 1, 11:04am

Tue Dec 1, 10:04am

Tue Dec 1, 9:04am

Tue Dec 1, 8:04am

Tue Dec 1, 7:04am

Tue Dec 1, 6:04am

Tue Dec 1, 5:05am

Tue Dec 1, 4:04am

Tue Dec 1, 3:04am

Tue Dec 1, 2:04am

Tue Dec 1, 1:04am

Tue Dec 1, 12:04am

Mon Nov 30, 11:04pm

Mon Nov 30, 10:04pm

Mon Nov 30, 9:04pm

Mon Nov 30, 8:04pm

Mon Nov 30, 7:05pm

Mon Nov 30, 6:04pm

Mon Nov 30, 5:05pm

Mon Nov 30, 4:04pm

Mon Nov 30, 3:05pm

Mon Nov 30, 2:05pm

Mon Nov 30, 1:04pm

Mon Nov 30, 12:05pm

Mon Nov 30, 11:04am

Mon Nov 30, 10:04am

Mon Nov 30, 9:04am

Mon Nov 30, 8:04am

Mon Nov 30, 7:05am

Mon Nov 30, 6:04am

Mon Nov 30, 5:05am

Mon Nov 30, 4:04am

Mon Nov 30, 3:04am

Mon Nov 30, 2:04am

Mon Nov 30, 1:04am

Mon Nov 30, 12:04am

Sun Nov 29, 11:04pm

Sun Nov 29, 10:04pm

Sun Nov 29, 9:04pm

Sun Nov 29, 8:04pm

Sun Nov 29, 7:04pm

Sun Nov 29, 6:04pm

Sun Nov 29, 5:04pm

Sun Nov 29, 4:05pm

Sun Nov 29, 3:04pm

Sun Nov 29, 2:04pm

Sun Nov 29, 1:04pm

Sun Nov 29, 12:04pm

Sun Nov 29, 11:04am

Sun Nov 29, 10:04am

Sun Nov 29, 9:04am

Sun Nov 29, 8:05am

Sun Nov 29, 7:04am

Sun Nov 29, 6:04am

Sun Nov 29, 5:04am

Sun Nov 29, 4:04am

Sun Nov 29, 3:04am

Sun Nov 29, 2:05am

Sun Nov 29, 1:04am

Sun Nov 29, 12:04am

Sat Nov 28, 11:04pm

Sat Nov 28, 10:04pm

Sat Nov 28, 9:04pm

Sat Nov 28, 8:04pm

Sat Nov 28, 7:04pm

Sat Nov 28, 6:04pm

Sat Nov 28, 5:04pm

Sat Nov 28, 4:04pm

Sat Nov 28, 3:04pm

Sat Nov 28, 2:04pm

Sat Nov 28, 1:04pm

Sat Nov 28, 12:04pm

Sat Nov 28, 11:04am

Sat Nov 28, 10:04am

Sat Nov 28, 9:04am

Sat Nov 28, 8:04am

Sat Nov 28, 7:04am

Sat Nov 28, 6:04am

Sat Nov 28, 5:04am

Sat Nov 28, 4:04am

Sat Nov 28, 3:05am

Sat Nov 28, 2:04am

Sat Nov 28, 1:04am

Fri Nov 27, 11:05pm

Fri Nov 27, 10:04pm

Fri Nov 27, 9:04pm

Fri Nov 27, 8:04pm

Fri Nov 27, 7:04pm

Fri Nov 27, 6:04pm

Fri Nov 27, 5:04pm

Fri Nov 27, 4:05pm

Fri Nov 27, 3:05pm

Fri Nov 27, 2:05pm

Meta data:

ID: 6e948498-2e6d-489c-ba99-c27df9e58f38
Link: https://api.weather.gov/products/6e948498-2e6d-489c-ba99-c27df9e58f38